AirNav   Everest Fuels
 
 987 users online  

8CA7 Platform Henry Heliport
Carpinteria, California, USA

GOING TO CARPINTERIA?


FAA INFORMATION EFFECTIVE 21 MAY 2020

Location

FAA Identifier: 8CA7
Lat/Long: 34-19-59.0000N 119-33-40.4000W
34-19.983333N 119-33.673333W
34.3330556,-119.5612222
(estimated)
Elevation: 111 ft. / 34 m (estimated)
Variation: 14E (1985)
From city: 4 miles W of CARPINTERIA, CA
Time zone: UTC -7 (UTC -8 during Standard Time)
Zip code: 93013

Heliport Operations

Heliport use: Private use. Permission required prior to landing
Activation date: 12/1980
Control tower: no
ARTCC: LOS ANGELES CENTER
FSS: HAWTHORNE FLIGHT SERVICE STATION
Attendance: UNATNDD
Wind indicator: yes
Segmented circle: no
Lights: FOR PERIMETER LGTS CALL 805-653-1286.

Heliport Communications

WX ASOS at SBA (15 nm W): PHONE 805-681-0583
WX ASOS at OXR (19 nm SE): PHONE 805-382-0569

Nearby radio navigation aids

VOR radial/distance  VOR name  Freq  Var
RZSr122/14.8SAN MARCUS VORTAC114.9014E
CMAr272/24.3CAMARILLO VOR/DME115.8015E
VTUr282/28.6VENTURA VOR/DME108.2015E
GVOr098/28.8GAVIOTA VORTAC113.8016E
FIMr253/33.7FILLMORE VORTAC112.5015E

Heliport Services

Runway Information

Helipad H1

Dimensions: 58 x 55 ft. / 18 x 17 m
Surface: mats
REINFORCED STRUCTURAL STEEL PLATE SFC 12000 LBS RATED.
Runway edge lights: PERI
20 60W LAMPS AROUND PERIMETER.
Latitude: 34-19.983333N
Longitude: 119-33.673333W
Elevation: 111.0 ft.
Traffic pattern: leftleft

Heliport Ownership and Management from official FAA records

Ownership: Privately-owned
Owner: UNOCAL
P.O. BOX 6176
VENTURA, CA 93006
Phone 805-656-7600
Manager: D. A. CHUDANOV
P.O. BOX 6176
VENTURA, CA 93006
Phone 805-656-7600

Additional Remarks

A52-H1 LGTD DRILLING RIG & CRANE.
FOR CD CTC SANTA BARBARA APCH, WHEN CLSD CTC LOS ANGELES ARTCC AT 661-575-2079.

Instrument Procedures

There are no published instrument procedures at 8CA7.

Some nearby airports with instrument procedures:

KSBA - Santa Barbara Municipal Airport (15 nm W)
KOXR - Oxnard Airport (19 nm SE)
KCMA - Camarillo Airport (24 nm E)
KNTD - Point Mugu Naval Air Station (Naval Base Ventura County) (25 nm SE)
KIZA - Santa Ynez Airport (30 nm NW)
 
Loc | Ops | Rwys | IFR | FBO | Links
Com | Nav | Svcs | Stats | Notes
Area around 8CA7 (Platform Henry Heliport)
 
Road maps at: MapQuest Bing Google
 
Aerial photo
No photo
 
Sectional chart

 
Airport distance calculator
Flying to Platform Henry Heliport? Find the distance to fly.

From to 8CA7

Sunrise and sunset
Times for 28-May-2020
 Local
(UTC-7)
 Zulu
(UTC)
Morning civil twilight05:2012:20
Sunrise05:4912:49
Sunset20:0203:02
Evening civil twilight20:3103:31

Current date and time
Zulu (UTC)  29-May-2020 01:03:39
Local (UTC-7)  28-May-2020 18:03:39
 
METAR
KSBA 
16nm NW 
290053Z 26010KT 10SM FEW008 18/13 A2993 RMK AO2 SLP134 T01780133
KOXR 
20nm SE 
290051Z 22006KT 10SM OVC009 17/14 A2993 RMK AO2 SLP135 T01670139
KCMA 
25nm E 
290055Z 22009KT 10SM CLR 21/14 A2992 RMK AO2 SLP141 T02110139
KNTD 
26nm SE 
290052Z 20006KT 8SM BKN009 17/14 A2994 RMK AO2 SLP139 T01670139 $
KIZA 
30nm NW 
290055Z AUTO 26011KT 10SM CLR 25/13 A2991 RMK AO2
TAF
KSBA 
16nm NW 
282215Z 2822/2918 24007KT P6SM FEW012 FM290400 VRB03KT 4SM BR OVC004 FM290700 11004KT 6SM BR OVC009 FM291300 VRB03KT 2SM BR OVC006
KOXR 
20nm SE 
282215Z 2822/2918 26009KT P6SM BKN008 FM290100 27005KT 6SM BR OVC005 FM290600 VRB03KT 3SM BR OVC007 FM291500 VRB03KT P6SM OVC010
NOTAMs
Click for the latest NOTAMs
NOTAMs are issued by the DoD/FAA and will open in a separate window not controlled by AirNav.

 

 
 

Would you like to see your business listed on this page?

 If your business provides an interesting product or service to pilots, flight crews, aircraft, or users of the Platform Henry Heliport, you should consider listing it here.  To start the listing process, click on the button below
 
Add a business
 

Other Pages about Platform Henry Heliport

Update a link
 
Copyright © AirNav, LLC. All rights reserved. Privacy Policy  Contact